Zurück zum Katalog

COSMOS 2251 DEB

AktivLEO
NORAD 34946·DEBRIS·🇷🇺 Russia

Gestartet Jun 16, 1993 von Plesetsk Cosmodrome

Loading…

Nächste Überflüge (nächste 24 Stunden)

TLE

AktuellSource: Space-Track

Epoche: Sep 14, 2026, 02:19 UTC

1 34946U 93036ADZ 26257.09682305  .00001280  00000-0  24952-3 0  9998
2 34946  74.0233 173.9043 0051700 241.8298 117.7641 14.63311595922357

Verfolge COSMOS 2251 DEB in Echtzeit mit AllMySat

Download on the App Store